CW0775 Weather Reports


time (UTC)temp
C
wind
direction
speed
KPH
gust
KPH
rain 1hr
cm
rain 24hr
cm
rain mn
cm
humidity
%
barometer
mb
20260506070505 13 238 1.6 11.3 0.00 0.25 0.00 88 1005.1
20260506061506 13 124 0.0 3.2 0.00 0.25 0.00 93 1005.3
20260506061005 13 334 0.0 0.0 0.00 0.25 0.00 93 1005.1
20260506060506 13 242 0.0 0.0 0.00 0.25 0.00 94 1005.1
20260506051005 11 272 0.0 0.0 0.00 0.25 0.00 99 1005.1
20260506050505 11 285 0.0 0.0 0.00 0.25 0.00 99 1005.1
20260506044505 11 272 0.0 0.0 0.00 0.25 0.00 99 1005.1
20260506043506 11 272 0.0 0.0 0.00 0.25 0.00 99 1005.1
20260506043005 11 272 0.0 0.0 0.00 0.25 0.00 99 1005.1
20260506041506 11 272 0.0 0.0 0.00 0.25 0.00 99 1005.1
20260506040506 11 273 0.0 0.0 0.00 0.25 0.00 99 1005.1
20260506034006 11 272 0.0 0.0 0.00 0.25 0.00 99 1005.3
20260506033506 11 273 0.0 0.0 0.00 0.25 0.00 99 1005.4
20260506033006 10 267 0.0 0.0 0.00 0.25 0.00 99 1005.4
20260506031506 10 271 0.0 0.0 0.00 0.25 0.00 98 1005.4
20260506031005 10 273 0.0 0.0 0.00 0.25 0.00 98 1005.4
20260506030505 10 273 0.0 0.0 0.00 0.25 0.00 98 1005.4
20260506030005 10 271 0.0 0.0 0.00 0.25 0.00 98 1005.4
20260506024504 10 271 0.0 0.0 0.00 0.25 0.00 98 1005.3
20260506024005 10 271 0.0 0.0 0.00 0.25 0.00 98 1005.4
20260506023506 10 271 0.0 0.0 0.00 0.25 0.00 98 1005.4
20260506023005 10 266 0.0 3.2 0.00 0.25 0.00 98 1005.4
20260506021505 10 259 0.0 3.2 0.00 0.25 0.00 98 1005.3
20260506021005 10 272 1.6 4.8 0.00 0.25 0.00 98 1005.4
20260506020005 11 261 0.0 0.0 0.00 0.25 0.00 97 1005.2
20260506014506 11 274 0.0 0.0 0.00 0.25 0.00 97 1005.6
20260506014005 11 274 0.0 0.0 0.00 0.25 0.00 97 1005.8
20260506013506 11 274 0.0 0.0 0.00 0.25 0.00 97 1005.5
20260506013005 11 276 0.0 0.0 0.00 0.25 0.00 97 1005.4
20260506011505 12 285 0.0 0.0 0.00 0.25 0.00 97 1005.8
20260506011005 12 274 0.0 0.0 0.00 0.25 0.00 97 1006.1
20260506010505 12 273 0.0 3.2 0.00 0.25 0.00 97 1005.8
20260506004505 11 265 0.0 0.0 0.00 0.25 0.00 97 1006.1
20260506004005 11 268 0.0 0.0 0.00 0.25 0.00 97 1006.0
20260506003506 11 268 0.0 0.0 0.00 0.25 0.00 97 1005.9
20260506003005 11 279 0.0 0.0 0.00 0.25 0.00 98 1005.8
20260506001505 11 266 0.0 0.0 0.00 0.25 0.00 97 1006.1
20260506000505 11 264 0.0 0.0 0.00 0.25 0.00 97 1006.1
20260506000004 11 264 0.0 0.0 0.00 0.25 0.00 97 1006.1
20260505234505 12 264 0.0 0.0 0.00 0.25 0.00 97 1006.1
20260505234005 12 265 0.0 0.0 0.00 0.25 0.00 97 1006.1
20260505233506 12 267 1.6 4.8 0.00 0.25 0.00 97 1006.1
20260505233005 12 264 0.0 3.2 0.00 0.25 0.00 97 1006.1
20260505231505 12 274 0.0 0.0 0.00 0.25 0.00 97 1006.1
20260505231004 12 282 0.0 0.0 0.00 0.25 0.00 97 1006.1
20260505230506 12 282 0.0 0.0 0.00 0.25 0.00 97 1006.1
20260505224505 12 279 0.0 0.0 0.00 0.25 0.00 97 1006.4
20260505224004 12 273 0.0 3.2 0.00 0.25 0.00 97 1006.4
20260505223506 12 278 0.0 0.0 0.00 0.25 0.00 97 1006.1
20260505223005 12 279 0.0 4.8 0.00 0.25 0.00 97 1006.4
20260505221505 13 280 0.0 3.2 0.00 0.25 0.00 97 1006.4
20260505221005 13 286 0.0 0.0 0.00 0.25 0.00 97 1006.4
20260505214505 13 276 0.0 0.0 0.00 0.25 0.25 97 1006.4
20260505213506 13 277 0.0 0.0 0.00 0.25 0.25 97 1006.4
20260505213004 13 276 0.0 0.0 0.00 0.25 0.25 97 1006.4
20260505211506 13 273 0.0 0.0 0.00 0.25 0.25 97 1006.4
20260505211005 13 271 0.0 0.0 0.00 0.25 0.25 97 1006.7
20260505210504 13 270 0.0 0.0 0.00 0.25 0.25 97 1006.8
20260505210004 13 268 0.0 0.0 0.00 0.25 0.25 96 1006.7
20260505204504 13 268 0.0 0.0 0.00 0.25 0.25 96 1006.7
20260505201506 13 264 0.0 0.0 0.00 0.25 0.25 96 1006.8
20260505200004 13 264 0.0 0.0 0.00 0.25 0.25 96 1006.8
20260505194504 13 264 0.0 0.0 0.00 0.25 0.25 96 1006.8
20260505194005 13 279 0.0 0.0 0.00 0.25 0.25 96 1006.5
20260505193505 13 274 0.0 0.0 0.00 0.25 0.25 96 1006.6
20260505193005 13 273 0.0 0.0 0.00 0.25 0.25 96 1006.4
20260505191505 14 273 0.0 0.0 0.00 0.25 0.25 96 1006.2
20260505191004 14 274 0.0 0.0 0.00 0.25 0.25 96 1006.4
20260505190005 14 248 0.0 0.0 0.00 0.25 0.25 96 1006.4
20260505184004 14 247 0.0 0.0 0.00 0.25 0.25 96 1006.4
20260505183505 14 246 0.0 0.0 0.00 0.25 0.25 96 1006.4
20260505181505 14 240 0.0 0.0 0.00 0.25 0.25 95 1006.4
20260505180504 14 265 0.0 0.0 0.00 0.25 0.25 95 1006.4
20260505180005 14 227 0.0 0.0 0.00 0.25 0.25 95 1006.8
20260505174005 15 248 0.0 0.0 0.00 0.25 0.25 94 1006.4
20260505173505 15 250 0.0 0.0 0.00 0.25 0.25 94 1006.4
20260505173004 15 236 0.0 0.0 0.00 0.25 0.25 94 1006.5
20260505171004 15 262 0.0 0.0 0.00 0.25 0.25 93 1006.8
20260505170504 15 262 0.0 0.0 0.00 0.25 0.25 93 1006.8
20260505170004 15 208 0.0 3.2 0.03 0.25 0.25 93 1006.4
20260505164504 15 261 0.0 0.0 0.03 0.25 0.25 93 1006.8
20260505164004 15 267 0.0 0.0 0.03 0.25 0.25 93 1006.6
20260505163505 15 261 0.0 0.0 0.03 0.25 0.25 93 1006.8
20260505163004 15 277 0.0 0.0 0.03 0.25 0.25 93 1006.8
20260505161004 15 277 0.0 0.0 0.08 0.25 0.25 93 1006.8
20260505160505 15 271 0.0 0.0 0.08 0.25 0.25 93 1006.8
20260505153004 15 267 0.0 4.8 0.10 0.23 0.23 93 1007.1
20260505151505 15 251 0.0 3.2 0.08 0.20 0.20 92 1007.1
20260505151004 15 280 0.0 3.2 0.08 0.18 0.18 92 1007.1
20260505150504 15 280 0.0 0.0 0.08 0.18 0.18 92 1007.1
20260505124504 16 262 1.6 4.8 0.03 0.03 0.03 86 1007.8
20260505124005 16 314 1.6 4.8 0.03 0.03 0.03 85 1007.8
20260505123504 16 292 3.2 4.8 0.03 0.03 0.03 85 1007.8
20260505123004 16 261 0.0 8.0 0.03 0.03 0.03 85 1008.1
20260505121504 17 259 0.0 3.2 0.00 0.00 0.00 80 1007.8
20260505121004 17 315 1.6 4.8 0.00 0.00 0.00 78 1007.8
20260505120503 18 283 1.6 4.8 0.00 0.00 0.00 75 1007.8
20260505114504 18 229 1.6 4.8 0.00 0.00 0.00 71 1007.8
20260505114004 18 319 3.2 4.8 0.00 0.00 0.00 71 1007.8
20260505113504 18 273 3.2 8.0 0.00 0.00 0.00 70 1007.8
20260505113005 18 246 4.8 11.3 0.00 0.00 0.00 70 1007.8
20260505111504 18 289 3.2 4.8 0.00 0.00 0.00 71 1008.1
20260505111003 18 276 4.8 8.0 0.00 0.00 0.00 70 1008.1
20260505110504 18 247 0.0 4.8 0.00 0.00 0.00 69 1008.1
20260505101004 18 272 0.0 3.2 0.00 0.00 0.00 71 1008.5
20260505100504 18 276 1.6 4.8 0.00 0.00 0.00 71 1008.5
20260505100004 18 258 0.0 0.0 0.00 0.00 0.00 70 1008.2
20260505094504 18 212 0.0 4.8 0.00 0.00 0.00 68 1008.5
20260505094004 18 209 3.2 4.8 0.00 0.00 0.00 68 1008.5
20260505093505 18 267 0.0 4.8 0.00 0.00 0.00 69 1008.5
20260505093004 18 157 1.6 8.0 0.00 0.00 0.00 68 1008.5
20260505091506 18 98 3.2 8.0 0.00 0.00 0.00 70 1008.5
20260505091006 18 233 0.0 3.2 0.00 0.00 0.00 71 1008.5
20260505090507 17 297 0.0 8.0 0.00 0.00 0.00 70 1008.6
20260505090006 17 279 3.2 8.0 0.00 0.00 0.00 71 1008.7
20260505084506 18 281 0.0 3.2 0.00 0.00 0.00 71 1008.8
20260505084005 17 254 0.0 3.2 0.00 0.00 0.00 77 1008.5
20260505083006 17 310 1.6 8.0 0.00 0.00 0.00 76 1008.8
20260505081506 16 274 6.4 8.0 0.00 0.00 0.00 79 1008.8
20260505080506 17 275 4.8 8.0 0.00 0.00 0.00 78 1008.8
20260505080005 17 283 4.8 8.0 0.00 0.00 0.00 79 1008.8
20260505074505 17 283 4.8 8.0 0.00 0.00 0.00 80 1008.9
20260505074006 17 197 1.6 11.3 0.00 0.00 0.00 79 1008.9
20260505073507 17 203 1.6 11.3 0.00 0.00 0.00 78 1008.8
20260505073005 17 238 0.0 3.2 0.00 0.00 0.00 78 1009.1
20260505071507 16 155 1.6 3.2 0.00 0.00 0.00 82 1009.1
20260505071005 16 196 0.0 4.8 0.00 0.00 0.00 82 1009.1